FW7103 Weather Reports


time (UTC)temp
C
wind
direction
speed
KPH
gust
KPH
rain 1hr
cm
rain 24hr
cm
rain mn
cm
humidity
%
barometer
mb
20260504001919 25 69 3.2 3.2 0.00 0.00 0.00 40 1006.7
20260504001416 25 39 4.8 8.0 0.00 0.00 0.00 39 1006.8
20260504000912 25 27 3.2 4.8 0.00 0.00 0.00 39 1006.8
20260504000409 25 59 3.2 3.2 0.00 0.00 0.00 40 1006.8
20260503235907 25 19 4.8 8.0 0.00 0.00 0.00 39 1007.1
20260503235405 25 21 8.0 11.3 0.00 0.00 0.00 39 1006.9
20260503234902 25 2 9.7 11.3 0.00 0.00 0.00 39 1007.0
20260503234359 25 58 4.8 8.0 0.00 0.00 0.00 40 1007.1
20260503233857 25 16 9.7 11.3 0.00 0.00 0.00 40 1007.2
20260503233353 25 352 4.8 8.0 0.00 0.00 0.00 41 1007.1
20260503232849 25 336 6.4 9.7 0.00 0.00 0.00 42 1007.2
20260503232347 25 61 6.4 9.7 0.00 0.00 0.00 41 1007.4
20260503231845 25 16 8.0 11.3 0.00 0.00 0.00 41 1007.5
20260503231341 25 24 8.0 11.3 0.00 0.00 0.00 41 1007.4
20260503230838 25 50 3.2 3.2 0.00 0.00 0.00 42 1007.6
20260503230335 25 77 0.0 1.6 0.00 0.00 0.00 43 1007.5
20260503225833 25 39 8.0 9.7 0.00 0.00 0.00 42 1007.6
20260503225328 25 16 4.8 4.8 0.00 0.00 0.00 42 1007.7
20260503224825 25 71 4.8 4.8 0.00 0.00 0.00 41 1007.9
20260503224322 25 15 11.3 12.9 0.00 0.00 0.00 40 1008.0
20260503223820 24 65 4.8 8.0 0.00 0.00 0.00 39 1008.0
20260503223317 25 44 8.0 12.9 0.00 0.00 0.00 40 1008.2
20260503222812 24 14 8.0 11.3 0.00 0.00 0.00 41 1008.2
20260503222311 24 15 12.9 14.5 0.00 0.00 0.00 42 1008.1
20260503221809 24 33 9.7 12.9 0.00 0.00 0.00 40 1008.3
20260503221307 24 75 6.4 8.0 0.00 0.00 0.00 39 1008.5
20260503220803 24 79 8.0 12.9 0.00 0.00 0.00 41 1008.4
20260503220300 24 25 8.0 9.7 0.00 0.00 0.00 42 1008.6
20260503215757 24 28 6.4 9.7 0.00 0.00 0.00 40 1008.2
20260503215254 24 23 9.7 12.9 0.00 0.00 0.00 38 1008.3
20260503214752 24 0 8.0 14.5 0.00 0.00 0.00 38 1008.5
20260503214248 23 20 4.8 4.8 0.00 0.00 0.00 39 1008.5
20260503213746 23 4 9.7 14.5 0.00 0.00 0.00 38 1008.7
20260503213244 23 12 6.4 11.3 0.00 0.00 0.00 40 1008.7
20260503212740 23 49 8.0 11.3 0.00 0.00 0.00 40 1008.8
20260503212238 23 319 4.8 11.3 0.00 0.00 0.00 41 1008.7
20260503211735 23 3 6.4 11.3 0.00 0.00 0.00 40 1008.8
20260503211231 23 83 4.8 9.7 0.00 0.00 0.00 40 1008.8
20260503210727 23 49 8.0 9.7 0.00 0.00 0.00 42 1008.7
20260503210225 23 12 22.5 24.1 0.00 0.00 0.00 39 1008.9
20260503205720 23 38 4.8 8.0 0.00 0.00 0.00 42 1009.1
20260503205216 22 23 9.7 11.3 0.00 0.00 0.00 44 1009.1
20260503204713 22 24 4.8 8.0 0.00 0.00 0.00 44 1009.1
20260503204211 22 27 6.4 9.7 0.00 0.00 0.00 42 1009.3
20260503203707 22 33 6.4 8.0 0.00 0.00 0.00 43 1009.2
20260503203205 22 336 4.8 9.7 0.00 0.00 0.00 43 1009.4
20260503202702 23 8 8.0 9.7 0.00 0.00 0.00 42 1009.3
20260503202200 23 355 17.7 20.9 0.00 0.00 0.00 41 1009.3
20260503201658 23 35 8.0 11.3 0.00 0.00 0.00 42 1009.3
20260503201155 23 29 9.7 11.3 0.00 0.00 0.00 42 1009.5
20260503200651 23 11 11.3 14.5 0.00 0.00 0.00 43 1009.5
20260503200148 22 21 4.8 8.0 0.00 0.00 0.00 43 1009.6
20260503195645 23 0 12.9 14.5 0.00 0.00 0.00 41 1009.4
20260503195142 23 51 8.0 14.5 0.00 0.00 0.00 42 1009.6
20260503194639 23 348 11.3 14.5 0.00 0.00 0.00 43 1009.9
20260503194134 22 32 11.3 16.1 0.00 0.00 0.00 43 1009.8
20260503193631 22 333 8.0 12.9 0.00 0.00 0.00 43 1009.9
20260503193126 22 24 3.2 4.8 0.00 0.00 0.00 44 1009.9
20260503192622 22 330 8.0 9.7 0.00 0.00 0.00 46 1009.8
20260503192118 22 335 8.0 11.3 0.00 0.00 0.00 46 1010.0
20260503191615 22 52 1.6 1.6 0.00 0.00 0.00 48 1010.1
20260503191112 22 34 6.4 9.7 0.00 0.00 0.00 47 1010.2
20260503190609 22 21 11.3 14.5 0.00 0.00 0.00 47 1010.4
20260503190106 22 27 16.1 20.9 0.00 0.00 0.00 47 1010.2
20260503185603 22 24 8.0 9.7 0.00 0.00 0.00 47 1010.4
20260503185102 22 2 12.9 14.5 0.00 0.00 0.00 47 1010.3
20260503184558 22 36 8.0 11.3 0.00 0.00 0.00 46 1010.3
20260503184055 22 44 4.8 4.8 0.00 0.00 0.00 48 1010.2
20260503183551 21 358 12.9 14.5 0.00 0.00 0.00 49 1010.5
20260503183049 21 351 8.0 9.7 0.00 0.00 0.00 50 1010.5
20260503182547 21 10 11.3 11.3 0.00 0.00 0.00 49 1010.7
20260503182045 21 351 11.3 14.5 0.00 0.00 0.00 50 1010.6
20260503181541 21 10 4.8 9.7 0.00 0.00 0.00 51 1010.5
20260503181038 21 38 6.4 9.7 0.00 0.00 0.00 50 1010.6
20260503180535 21 6 12.9 17.7 0.00 0.00 0.00 51 1010.7
20260503180032 21 9 4.8 11.3 0.00 0.00 0.00 52 1010.5
20260503175530 21 353 8.0 12.9 0.00 0.00 0.00 53 1010.6
20260503175027 21 5 6.4 8.0 0.00 0.00 0.00 54 1010.5
20260503174524 20 73 4.8 4.8 0.00 0.00 0.00 55 1010.6
20260503174020 20 7 8.0 9.7 0.00 0.00 0.00 54 1010.6
20260503173515 20 9 12.9 16.1 0.00 0.00 0.00 55 1010.8
20260503173012 20 25 8.0 9.7 0.00 0.00 0.00 54 1010.9
20260503172510 21 16 6.4 9.7 0.00 0.00 0.00 54 1010.9
20260503172006 20 69 1.6 3.2 0.00 0.00 0.00 56 1010.7
20260503171503 21 63 3.2 4.8 0.00 0.00 0.00 54 1010.8
20260503171000 20 29 4.8 4.8 0.00 0.00 0.00 55 1010.8
20260503170456 20 106 4.8 4.8 0.00 0.00 0.00 54 1010.9
20260503150849 17 58 1.6 1.6 0.00 0.00 0.00 62 1011.1
20260503150345 17 30 4.8 4.8 0.00 0.00 0.00 60 1010.9
20260503140309 16 50 3.2 4.8 0.00 0.00 0.00 62 1010.9
20260503131239 13 72 0.0 1.6 0.00 0.00 0.00 72 1010.8
20260503130736 13 74 1.6 1.6 0.00 0.00 0.00 73 1010.8
20260503130233 13 70 1.6 3.2 0.00 0.00 0.00 73 1011.1
20260503120159 13 74 0.0 1.6 0.00 0.00 0.00 69 1010.9
20260503110627 15 58 3.2 4.8 0.00 0.00 0.00 64 1011.1
20260503110124 15 93 3.2 4.8 0.00 0.00 0.00 63 1011.0
20260503081440 16 83 1.6 3.2 0.00 0.00 0.00 54 1011.2
20260503080937 16 60 1.6 1.6 0.00 0.00 0.00 54 1011.2
20260503080433 16 55 1.6 3.2 0.00 0.00 0.00 54 1011.2
20260503072910 17 47 3.2 3.2 0.00 0.00 0.00 52 1011.2
20260503072407 17 72 1.6 1.6 0.00 0.00 0.00 52 1011.2
20260503071904 17 86 1.6 1.6 0.00 0.00 0.00 52 1011.1
20260503071401 17 79 0.0 1.6 0.00 0.00 0.00 51 1011.1
20260503070856 17 35 4.8 4.8 0.00 0.00 0.00 51 1011.2
20260503070355 17 57 3.2 4.8 0.00 0.00 0.00 51 1011.1
20260503060320 17 81 1.6 3.2 0.00 0.00 0.00 50 1011.2
20260503054808 18 80 1.6 3.2 0.00 0.00 0.00 50 1011.0
20260503054304 18 63 3.2 3.2 0.00 0.00 0.00 50 1010.8
20260503053802 18 64 1.6 1.6 0.00 0.00 0.00 50 1011.1
20260503053300 18 45 4.8 8.0 0.00 0.00 0.00 50 1010.8
20260503052756 18 102 3.2 8.0 0.00 0.00 0.00 51 1010.8
20260503052253 18 101 1.6 3.2 0.00 0.00 0.00 51 1010.8
20260503051748 18 50 3.2 3.2 0.00 0.00 0.00 51 1010.9
20260503051246 18 77 1.6 3.2 0.00 0.00 0.00 51 1010.8
20260503050742 18 54 3.2 4.8 0.00 0.00 0.00 50 1011.1
20260503050239 18 73 0.0 1.6 0.00 0.00 0.00 50 1011.0
20260503045736 18 79 3.2 3.2 0.00 0.00 0.00 50 1010.7
20260503045234 18 76 0.0 1.6 0.00 0.00 0.00 51 1011.0
20260503044730 18 74 0.0 0.0 0.00 0.00 0.00 51 1010.9
20260503044228 18 79 0.0 0.0 0.00 0.00 0.00 51 1010.9
20260503043724 18 71 1.6 1.6 0.00 0.00 0.00 51 1010.8
20260503043222 18 63 1.6 1.6 0.00 0.00 0.00 51 1010.7
20260503042717 18 65 1.6 1.6 0.00 0.00 0.00 50 1010.9
20260503042215 18 75 3.2 4.8 0.00 0.00 0.00 50 1010.9
20260503041710 18 78 0.0 1.6 0.00 0.00 0.00 51 1010.7
20260503041208 18 78 0.0 1.6 0.00 0.00 0.00 50 1010.6
20260503040705 19 39 3.2 3.2 0.00 0.00 0.00 49 1010.6
20260503040203 19 38 6.4 8.0 0.00 0.00 0.00 49 1010.6
20260503035659 19 44 1.6 1.6 0.00 0.00 0.00 49 1010.5
20260503035157 19 76 1.6 1.6 0.00 0.00 0.00 50 1010.5
20260503034654 19 66 3.2 3.2 0.00 0.00 0.00 50 1010.3
20260503034151 19 34 4.8 4.8 0.00 0.00 0.00 50 1010.3
20260503033649 19 86 3.2 4.8 0.00 0.00 0.00 50 1010.0
20260503033146 19 50 4.8 9.7 0.00 0.00 0.00 51 1010.1
20260503032644 19 75 4.8 8.0 0.00 0.00 0.00 51 1010.0
20260503032143 19 1 4.8 8.0 0.00 0.00 0.00 51 1010.0
20260503031639 19 30 6.4 8.0 0.00 0.00 0.00 51 1009.9
20260503031137 19 0 11.3 14.5 0.00 0.00 0.00 51 1009.8
20260503030633 19 33 6.4 8.0 0.00 0.00 0.00 51 1009.7
20260503030130 20 19 6.4 9.7 0.00 0.00 0.00 51 1010.0
20260503025626 20 0 8.0 12.9 0.00 0.00 0.00 50 1009.8
20260503025125 20 346 6.4 11.3 0.00 0.00 0.00 50 1009.7
20260503024621 20 26 8.0 11.3 0.00 0.00 0.00 50 1009.7
20260503024118 20 343 8.0 12.9 0.00 0.00 0.00 50 1009.9
20260503023615 20 20 8.0 9.7 0.00 0.00 0.00 50 1009.7
20260503023112 20 352 8.0 11.3 0.00 0.00 0.00 51 1009.7
20260503022607 20 30 4.8 4.8 0.00 0.00 0.00 51 1009.7
20260503022102 20 12 11.3 14.5 0.00 0.00 0.00 51 1009.8
20260503021600 20 324 6.4 8.0 0.00 0.00 0.00 51 1009.7
20260503021056 20 0 12.9 20.9 0.00 0.00 0.00 51 1009.6
20260503020554 20 348 11.3 14.5 0.00 0.00 0.00 50 1009.9
20260503020050 20 352 11.3 16.1 0.00 0.00 0.00 50 1009.5
20260503015547 20 12 9.7 14.5 0.00 0.00 0.00 49 1009.7
20260503015045 20 20 1.6 4.8 0.00 0.00 0.00 49 1009.7
20260503014540 20 0 9.7 16.1 0.00 0.00 0.00 49 1009.9
20260503014038 20 331 16.1 20.9 0.00 0.00 0.00 49 1009.8
20260503013535 20 359 25.7 29.0 0.00 0.00 0.00 48 1009.8
20260503013033 20 19 11.3 14.5 0.00 0.00 0.00 49 1009.9
20260503012530 20 9 17.7 24.1 0.00 0.00 0.00 48 1010.0
20260503012026 20 37 12.9 20.9 0.00 0.00 0.00 48 1009.9
20260503011523 20 345 19.3 24.1 0.00 0.00 0.00 47 1010.0
20260503011021 20 8 19.3 24.1 0.00 0.00 0.00 48 1010.1
20260503010516 20 359 14.5 17.7 0.00 0.00 0.00 48 1009.8
20260503010015 20 30 12.9 22.5 0.00 0.00 0.00 49 1010.0
20260503005512 20 31 17.7 22.5 0.00 0.00 0.00 50 1010.0
20260503005009 21 1 14.5 22.5 0.00 0.00 0.00 51 1009.8
20260503004504 20 1 12.9 16.1 0.00 0.00 0.00 51 1010.1
20260503004003 20 12 8.0 11.3 0.00 0.00 0.00 51 1010.1
20260503003459 20 33 9.7 14.5 0.00 0.00 0.00 51 1010.0
20260503002956 20 351 11.3 12.9 0.00 0.00 0.00 52 1009.9
20260503002453 20 355 16.1 17.7 0.00 0.00 0.00 52 1009.9
20260503001949 20 61 11.3 14.5 0.00 0.00 0.00 52 1010.0